HB9TJR-3 Weather Reports


time (UTC)temp
C
wind
direction
speed
KPH
gust
KPH
rain 1hr
cm
rain 24hr
cm
rain mn
cm
humidity
%
barometer
mb
20260507203133 6 0 0.0 0.0 0.00 0.00 0.00 87 864.3
20260507201533 6 0 0.0 0.0 0.00 0.00 0.00 86 864.2
20260507195933 7 0 0.0 0.0 0.00 0.00 0.00 85 864.0
20260507194333 7 0 0.0 0.0 0.00 0.00 0.00 86 863.9
20260507192733 7 0 0.0 0.0 0.00 0.00 0.00 87 863.8
20260507191133 7 0 0.0 0.0 0.00 0.00 0.00 87 863.6
20260507185533 7 0 0.0 0.0 0.00 0.00 0.00 89 863.7
20260507183933 7 0 0.0 0.0 0.00 0.00 0.00 90 863.6
20260507182333 7 0 0.0 0.0 0.00 0.00 0.00 90 863.6
20260507180733 7 0 0.0 0.0 0.00 0.00 0.00 92 863.6
20260507175133 7 0 0.0 0.0 0.00 0.00 0.00 91 863.5
20260507173533 7 0 0.0 0.0 0.00 0.00 0.00 91 863.6
20260507171933 7 0 0.0 0.0 0.00 0.00 0.00 91 863.6
20260507170333 7 0 0.0 0.0 0.00 0.00 0.00 92 863.7
20260507164733 7 0 0.0 0.0 0.00 0.00 0.00 92 863.7
20260507163133 7 0 0.0 0.0 0.00 0.00 0.00 95 863.8
20260507161533 8 0 0.0 0.0 0.00 0.00 0.00 95 863.8
20260507155933 7 0 0.0 0.0 0.00 0.00 0.00 94 863.7
20260507154333 7 0 0.0 0.0 0.00 0.00 0.00 95 863.7
20260507152733 7 0 0.0 0.0 0.00 0.00 0.00 94 863.6
20260507151134 8 0 0.0 0.0 0.00 0.00 0.00 95 863.7
20260507145533 7 0 0.0 0.0 0.00 0.00 0.00 95 863.8
20260507143933 7 0 0.0 0.0 0.00 0.00 0.00 95 863.7
20260507142333 8 0 0.0 0.0 0.00 0.00 0.00 93 863.8
20260507140733 8 0 0.0 0.0 0.00 0.00 0.00 97 863.8
20260507135133 7 0 0.0 0.0 0.00 0.00 0.00 96 863.8
20260507133533 7 0 0.0 0.0 0.00 0.00 0.00 93 864.0
20260507131933 8 0 0.0 0.0 0.00 0.00 0.00 92 863.9
20260507130333 8 0 0.0 0.0 0.00 0.00 0.00 95 864.0
20260507124733 8 0 0.0 0.0 0.00 0.00 0.00 91 863.9
20260507123133 8 0 0.0 0.0 0.00 0.00 0.00 90 863.9
20260507121533 8 0 0.0 0.0 0.00 0.00 0.00 90 863.9
20260507115933 7 0 0.0 0.0 0.00 0.00 0.00 91 863.8
20260507114333 8 0 0.0 0.0 0.00 0.00 0.00 90 863.8
20260507112733 8 0 0.0 0.0 0.00 0.00 0.00 88 863.7
20260507111133 7 0 0.0 0.0 0.00 0.00 0.00 93 863.8
20260507105533 7 0 0.0 0.0 0.00 0.00 0.00 90 863.8
20260507103933 7 0 0.0 0.0 0.00 0.00 0.00 92 863.8
20260507102333 7 0 0.0 0.0 0.00 0.00 0.00 90 863.7
20260507100735 7 0 0.0 0.0 0.00 0.00 0.00 92 863.6
20260507095134 7 0 0.0 0.0 0.00 0.00 0.00 88 863.6
20260507093533 7 0 0.0 0.0 0.00 0.00 0.00 91 863.7
20260507091933 7 0 0.0 0.0 0.00 0.00 0.00 92 863.6
20260507090333 7 0 0.0 0.0 0.00 0.00 0.00 91 863.4
20260507084733 7 0 0.0 0.0 0.00 0.00 0.00 92 863.4
20260507083133 7 0 0.0 0.0 0.00 0.00 0.00 90 863.3
20260507081533 7 0 0.0 0.0 0.00 0.00 0.00 92 863.3
20260507075933 7 0 0.0 0.0 0.00 0.00 0.00 89 863.1
20260507074333 7 0 0.0 0.0 0.00 0.00 0.00 91 863.1
20260507072733 6 0 0.0 0.0 0.00 0.00 0.00 91 863.1
20260507071133 6 0 0.0 0.0 0.00 0.00 0.00 94 863.1
20260507065533 6 0 0.0 0.0 0.00 0.00 0.00 94 863.0
20260507063933 6 0 0.0 0.0 0.00 0.00 0.00 92 862.8
20260507062334 6 0 0.0 0.0 0.00 0.00 0.00 92 862.8
20260507060733 6 0 0.0 0.0 0.00 0.00 0.00 93 862.6
20260507055133 6 0 0.0 0.0 0.00 0.00 0.00 93 862.5
20260507053533 6 0 0.0 0.0 0.00 0.00 0.00 92 862.5
20260507051933 6 0 0.0 0.0 0.00 0.00 0.00 91 862.4
20260507050333 6 0 0.0 0.0 0.00 0.00 0.00 91 862.3
20260507044733 6 0 0.0 0.0 0.00 0.00 0.00 91 862.1
20260507043133 6 0 0.0 0.0 0.00 0.00 0.00 91 862.0
20260507041533 6 0 0.0 0.0 0.00 0.00 0.00 89 861.8
20260507035933 6 0 0.0 0.0 0.00 0.00 0.00 90 861.8
20260507034334 6 0 0.0 0.0 0.00 0.00 0.00 90 861.8
20260507032733 6 0 0.0 0.0 0.00 0.00 0.00 89 861.7
20260507031133 6 0 0.0 0.0 0.00 0.00 0.00 88 861.7
20260507025533 6 0 0.0 0.0 0.00 0.00 0.00 88 861.8
20260507023933 6 0 0.0 0.0 0.00 0.00 0.00 89 861.8
20260507022335 6 0 0.0 0.0 0.00 0.00 0.00 89 861.5
20260507020733 6 0 0.0 0.0 0.00 0.00 0.00 88 861.5
20260507015134 6 0 0.0 0.0 0.00 0.00 0.00 88 861.3
20260507013533 6 0 0.0 0.0 0.00 0.00 0.00 88 861.2
20260507011933 6 0 0.0 0.0 0.00 0.00 0.00 88 861.3
20260507010334 6 0 0.0 0.0 0.00 0.00 0.00 87 861.3
20260507004734 6 0 0.0 0.0 0.00 0.00 0.00 86 861.3
20260507003133 6 0 0.0 0.0 0.00 0.00 0.00 86 861.4
20260507001533 6 0 0.0 0.0 0.00 0.00 0.00 86 861.4
20260506235933 6 0 0.0 0.0 0.00 0.00 0.00 85 861.3
20260506234333 6 0 0.0 0.0 0.00 0.00 0.00 86 861.3
20260506232733 6 0 0.0 0.0 0.00 0.00 0.00 86 861.3
20260506231134 6 0 0.0 0.0 0.00 0.00 0.00 85 861.3
20260506225533 5 0 0.0 0.0 0.00 0.00 0.00 87 861.2
20260506223933 6 0 0.0 0.0 0.00 0.00 0.00 86 861.3
20260506222333 6 0 0.0 0.0 0.00 0.00 0.00 88 861.2
20260506220733 6 0 0.0 0.0 0.00 0.00 0.00 88 861.2
20260506215133 6 0 0.0 0.0 0.00 0.00 0.00 88 861.1
20260506213533 5 0 0.0 0.0 0.00 0.00 0.00 89 861.0
20260506211934 5 0 0.0 0.0 0.00 0.00 0.00 89 861.1
20260506210333 5 0 0.0 0.0 0.00 0.00 0.00 91 861.1
20260506204733 5 0 0.0 0.0 0.00 0.00 0.00 90 861.0